DW9852 Weather Reports


Display with metric or nautical units.
time (UTC)temp
F
wind
direction
speed
MPH
gust
MPH
rain 1hr
in
rain 24hr
in
rain mn
in
humidity
%
barometer
mb
20260506202040 88 37 2.0 6.0 0.00 0.00 0.00 67 1011.2
20260506201549 88 0 2.0 6.0 0.00 0.00 0.00 66 1011.2
20260506201039 88 0 0.0 0.0 0.00 0.00 0.00 69 1011.3
20260506200539 86 0 0.0 0.0 0.00 0.00 0.00 67 1011.5
20260506200051 86 0 0.0 4.0 0.00 0.00 0.00 70 1011.6
20260506195538 85 0 0.0 5.0 0.00 0.00 0.00 71 1011.7
20260506195039 85 65 1.0 5.0 0.00 0.00 0.00 71 1011.8
20260506194549 86 0 0.0 1.0 0.00 0.00 0.00 72 1011.5
20260506194040 86 0 0.0 3.0 0.00 0.00 0.00 71 1011.5
20260506193540 86 0 0.0 3.0 0.00 0.00 0.00 72 1011.7
20260506193045 86 37 0.0 5.0 0.00 0.00 0.00 71 1011.8
20260506192540 85 0 0.0 5.0 0.00 0.00 0.00 72 1011.8
20260506192040 84 0 3.0 5.0 0.00 0.00 0.00 75 1011.7
20260506191550 84 94 2.0 4.0 0.00 0.00 0.00 72 1011.8
20260506191040 84 0 1.0 5.0 0.00 0.00 0.00 75 1011.9
20260506190540 84 94 1.0 5.0 0.00 0.00 0.00 72 1011.9
20260506190053 84 0 1.0 4.0 0.00 0.00 0.00 76 1012.0
20260506185540 83 0 0.0 4.0 0.00 0.00 0.00 77 1011.9
20260506185039 83 0 0.0 5.0 0.00 0.00 0.00 77 1012.0
20260506184556 83 18 1.0 6.0 0.00 0.00 0.00 78 1012.1
20260506184039 82 0 0.0 6.0 0.00 0.00 0.00 78 1012.2
20260506183538 81 76 0.0 2.0 0.00 0.00 0.00 80 1012.2
20260506183049 81 0 0.0 1.0 0.00 0.00 0.00 80 1012.3
20260506182541 81 18 0.0 2.0 0.00 0.00 0.00 81 1012.5
20260506182042 80 0 0.0 2.0 0.00 0.00 0.00 81 1012.7
20260506181600 80 0 0.0 2.0 0.00 0.00 0.00 81 1012.7
20260506181040 81 0 0.0 2.0 0.00 0.00 0.00 81 1012.7
20260506180540 81 29 0.0 2.0 0.00 0.00 0.00 80 1012.8
20260506180046 81 0 0.0 2.0 0.00 0.00 0.00 80 1012.7
20260506175539 81 0 0.0 2.0 0.00 0.00 0.00 79 1012.8
20260506175043 82 0 0.0 4.0 0.00 0.00 0.00 78 1012.8
20260506174604 81 0 0.0 4.0 0.00 0.00 0.00 79 1012.7
20260506174040 81 75 0.0 4.0 0.00 0.00 0.00 80 1012.8
20260506173539 81 78 0.0 4.0 0.00 0.00 0.00 80 1012.8
20260506173056 81 0 1.0 4.0 0.00 0.00 0.00 82 1012.8
20260506172539 81 0 0.0 4.0 0.00 0.00 0.00 81 1012.8
20260506172040 81 0 0.0 4.0 0.00 0.00 0.00 81 1012.8
20260506171547 80 14 0.0 5.0 0.00 0.00 0.00 82 1012.9
20260506171040 80 27 1.0 5.0 0.00 0.00 0.00 81 1012.9
20260506170539 80 0 0.0 1.0 0.00 0.00 0.00 83 1012.9
20260506170050 80 0 0.0 2.0 0.00 0.00 0.00 83 1012.9
20260506165540 79 0 0.0 4.0 0.00 0.00 0.00 84 1013.0
20260506165040 79 32 1.0 4.0 0.00 0.00 0.00 84 1013.0
20260506164547 79 0 0.0 3.0 0.00 0.00 0.00 85 1013.0
20260506164038 79 41 0.0 2.0 0.00 0.00 0.00 85 1013.0
20260506163538 79 8 0.0 3.0 0.00 0.00 0.00 85 1012.8
20260506163103 79 0 0.0 3.0 0.00 0.00 0.00 85 1012.8
20260506162539 79 0 1.0 3.0 0.00 0.00 0.00 85 1012.9
20260506162040 79 47 0.0 3.0 0.00 0.00 0.00 86 1012.9
20260506161549 78 0 0.0 3.0 0.00 0.00 0.00 87 1012.8
20260506161044 78 0 1.0 3.0 0.00 0.00 0.00 87 1012.7
20260506160539 78 0 0.0 2.0 0.00 0.00 0.00 87 1012.7
20260506160051 78 43 0.0 3.0 0.00 0.00 0.00 87 1012.8
20260506155540 78 0 0.0 3.0 0.00 0.00 0.00 87 1012.6
20260506155040 78 55 0.0 3.0 0.00 0.00 0.00 87 1012.6
20260506154553 77 0 0.0 0.0 0.00 0.00 0.00 88 1012.5
20260506154043 77 0 0.0 0.0 0.00 0.00 0.00 88 1012.5
20260506153541 0 0.0 0.0 0.00 0.00 0.00 1012.5
20260506153044 0 0.0 0.0 0.00 0.00 0.00 1012.4
20260506152538 0 0.0 0.0 0.00 0.00 0.00 1012.3
20260506152040 0 0.0 0.0 0.00 0.00 0.00 1012.1
20260506151551 0 0.0 0.0 0.00 0.00 0.00 1012.1
20260506151038 0 0.0 0.0 0.00 0.00 0.00 1012.1
20260506150537 0 0.0 0.0 0.00 0.00 0.00 1012.1
20260506150050 0 0.0 0.0 0.00 0.00 0.00 1012.1
20260506145541 0 0.0 0.0 0.00 0.00 0.00 1012.1
20260506145037 0 0.0 0.0 0.00 0.00 0.00 1012.0
20260506144548 0 0.0 0.0 0.00 0.00 0.00 1012.0
20260506144040 0 0.0 0.0 0.00 0.00 0.00 1011.9
20260506143537 0 0.0 0.0 0.00 0.00 0.00 1011.8
20260506143049 0 0.0 0.0 0.00 0.00 0.00 1011.7
20260506142538 0 0.0 0.0 0.00 0.00 0.00 1011.6
20260506142037 0 0.0 0.0 0.00 0.00 0.00 1011.5
20260506141550 0 0.0 0.0 0.00 0.00 0.00 1011.5
20260506141039 0 0.0 0.0 0.00 0.00 0.00 1011.5
20260506140544 0 0.0 0.0 0.00 0.00 0.00 1011.4
20260506140050 0 0.0 0.0 0.00 0.00 0.00 1011.3
20260506135539 0 0.0 0.0 0.00 0.00 0.00 1011.2
20260506135039 0 0.0 0.0 0.00 0.00 0.00 1011.1
20260506134554 0 0.0 0.0 0.00 0.00 0.00 1010.9
20260506134038 0 0.0 0.0 0.00 0.00 0.00 1010.8
20260506133538 0 0.0 0.0 0.00 0.00 0.00 1010.8
20260506133050 0 0.0 0.0 0.00 0.00 0.00 1010.8
20260506132541 0 0.0 0.0 0.00 0.00 0.00 1010.8
20260506132038 0 0.0 0.0 0.00 0.00 0.00 1010.8
20260506131551 0 0.0 0.0 0.00 0.00 0.00 1010.6
20260506131039 0 0.0 0.0 0.00 0.00 0.00 1010.5
20260506130538 0 0.0 0.0 0.00 0.00 0.00 1010.4
20260506130043 0 0.0 0.0 0.00 0.00 0.00 1010.3
20260506125540 0 0.0 0.0 0.00 0.00 0.00 1010.4
20260506125038 0 0.0 0.0 0.00 0.00 0.00 1010.4
20260506124549 0 0.0 0.0 0.00 0.00 0.00 1010.5
20260506124038 0 0.0 0.0 0.00 0.00 0.00 1010.6
20260506123538 0 0.0 0.0 0.00 0.00 0.00 1010.6
20260506123052 0 0.0 0.0 0.00 0.00 0.00 1010.5
20260506122539 0 0.0 0.0 0.00 0.00 0.00 1010.7
20260506122038 0 0.0 0.0 0.00 0.00 0.00 1010.6
20260506121557 0 0.0 0.0 0.00 0.00 0.00 1010.5
20260506121038 0 0.0 0.0 0.00 0.00 0.00 1010.5
20260506120538 0 0.0 0.0 0.00 0.00 0.00 1010.5
20260506120056 0 0.0 0.0 0.00 0.00 0.00 1010.4
20260506115542 0 0.0 0.0 0.00 0.00 0.00 1010.4
20260506115039 0 0.0 0.0 0.00 0.00 0.00 1010.5
20260506114542 0 0.0 0.0 0.00 0.00 0.00 1010.4
20260506114040 0 0.0 0.0 0.00 0.00 0.00 1010.3
20260506113539 0 0.0 0.0 0.00 0.00 0.00 1010.2
20260506113050 0 0.0 0.0 0.00 0.00 0.00 1010.2
20260506112541 0 0.0 0.0 0.00 0.00 0.00 1010.4
20260506112039 0 0.0 0.0 0.00 0.00 0.00 1010.3
20260506111548 0 0.0 0.0 0.00 0.00 0.00 1010.2
20260506111040 0 0.0 0.0 0.00 0.00 0.00 1010.2
20260506110540 0 0.0 0.0 0.00 0.00 0.00 1010.4
20260506105540 0 0.0 0.0 0.00 0.00 0.00 1010.3
20260506105039 0 0.0 0.0 0.00 0.00 0.00 1010.2
20260506104550 0 0.0 0.0 0.00 0.00 0.00 1010.1
20260506104039 0 0.0 0.0 0.00 0.00 0.00 1010.1
20260506103540 0 0.0 0.0 0.00 0.00 0.00 1010.0
20260506103056 0 0.0 0.0 0.00 0.00 0.00 1010.1
20260506102539 0 0.0 0.0 0.00 0.00 0.00 1010.1
20260506102041 0 0.0 0.0 0.00 0.00 0.00 1009.9
20260506101554 0 0.0 0.0 0.00 0.00 0.00 1010.1
20260506101039 0 0.0 0.0 0.00 0.00 0.00 1010.0
20260506100539 0 0.0 0.0 0.00 0.00 0.00 1009.9
20260506100050 0 0.0 0.0 0.00 0.00 0.00 1010.1
20260506095539 0 0.0 0.0 0.00 0.00 0.00 1010.1
20260506095040 0 0.0 0.0 0.00 0.00 0.00 1010.0
20260506094548 0 0.0 0.0 0.00 0.00 0.00 1010.0
20260506094038 0 0.0 0.0 0.00 0.00 0.00 1010.1
20260506093542 0 0.0 0.0 0.00 0.00 0.00 1009.9
20260506093058 0 0.0 0.0 0.00 0.00 0.00 1010.0
20260506092540 0 0.0 0.0 0.00 0.00 0.00 1010.1
20260506092039 0 0.0 0.0 0.00 0.00 0.00 91 1010.0
20260506091549 0 0.0 0.0 0.00 0.00 0.00 91 1010.0
20260506091039 75 203 1.0 6.0 0.00 0.00 0.00 91 1010.1
20260506090540 75 0 1.0 7.0 0.00 0.00 0.00 90 1010.0
20260506090100 75 0 2.0 7.0 0.00 0.00 0.00 91 1010.0
20260506085539 75 0 0.0 7.0 0.00 0.00 0.00 91 1010.0
20260506085040 75 0 3.0 7.0 0.00 0.00 0.00 91 1010.3
20260506084557 75 208 2.0 6.0 0.00 0.00 0.00 90 1010.2
20260506084039 75 195 0.0 6.0 0.00 0.00 0.00 90 1010.2
20260506083540 75 226 1.0 6.0 0.00 0.00 0.00 91 1010.3
20260506083049 75 203 2.0 5.0 0.00 0.00 0.00 90 1010.4
20260506082540 75 0 0.0 2.0 0.00 0.00 0.00 90 1010.4
20260506082040 76 0 0.0 5.0 0.00 0.00 0.00 90 1010.3
20260506081603 75 0 2.0 5.0 0.00 0.00 0.00 90 1010.4
20260506081043 75 233 2.0 8.0 0.00 0.00 0.00 90 1010.3
20260506080540 75 0 1.0 8.0 0.00 0.00 0.00 90 1010.5
20260506073047 76 174 0.0 6.0 0.00 0.00 0.00 90 1010.4
20260506072539 76 192 0.0 6.0 0.00 0.00 0.00 90 1010.6
20260506072041 76 117 2.0 5.0 0.00 0.00 0.00 90 1010.4
20260506071544 76 198 1.0 8.0 0.00 0.00 0.00 89 1010.6
20260506071044 76 216 1.0 8.0 0.00 0.00 0.00 90 1010.7
20260506070539 76 158 3.0 8.0 0.00 0.00 0.00 90 1010.7
20260506062039 76 215 2.0 8.0 0.00 0.00 0.00 90 1010.6
20260506061550 76 49 3.0 8.0 0.00 0.00 0.00 90 1010.6
20260506061039 76 52 1.0 8.0 0.00 0.00 0.00 90 1010.5
20260506060539 76 31 1.0 10.0 0.00 0.00 0.00 90 1010.6
20260506051037 76 0 1.0 6.0 0.00 0.00 0.00 90 1010.7
20260506050539 76 214 1.0 6.0 0.00 0.00 0.00 89 1010.5
20260506050112 77 165 2.0 6.0 0.00 0.00 0.00 89 1010.3
20260506045039 76 0 1.0 6.0 0.00 0.00 0.00 89 1010.4
20260506044551 77 186 1.0 7.0 0.00 0.00 0.00 89 1010.3
20260506044104 77 215 2.0 8.0 0.00 0.00 0.00 89 1010.4
20260506043539 77 68 3.0 8.0 0.00 0.00 0.00 89 1010.4
20260506043050 77 234 2.0 8.0 0.00 0.00 0.00 89 1010.4
20260506042540 77 212 4.0 8.0 0.00 0.00 0.00 88 1010.4
20260506042042 77 198 3.0 9.0 0.00 0.00 0.00 88 1010.2
20260506041601 77 195 3.0 9.0 0.00 0.00 0.00 88 1010.3
20260506041041 77 86 3.0 8.0 0.00 0.00 0.00 88 1010.2
20260506040539 77 102 1.0 7.0 0.00 0.00 0.00 87 1010.0
20260506040049 78 193 2.0 9.0 0.00 0.00 0.00 87 1010.0
20260506035541 78 89 2.0 9.0 0.00 0.00 0.00 87 1010.1
20260506035039 78 196 2.0 10.0 0.00 0.00 0.00 87 1009.9
20260506034553 78 67 4.0 10.0 0.00 0.00 0.00 87 1010.0
20260506034039 78 203 4.0 9.0 0.00 0.00 0.00 87 1009.9
20260506033539 78 200 2.0 7.0 0.00 0.00 0.00 86 1009.7
20260506033047 79 138 3.0 7.0 0.00 0.00 0.00 86 1009.8
20260506032543 79 63 3.0 9.0 0.00 0.00 0.00 86 1009.7
20260506032039 79 183 3.0 9.0 0.00 0.00 0.00 85 1009.7
20260506031549 79 94 3.0 10.0 0.00 0.00 0.00 85 1009.8
20260506031040 79 178 2.0 10.0 0.00 0.00 0.00 85 1009.7
20260506030545 80 120 2.0 10.0 0.00 0.00 0.00 84 1009.5
20260506030050 80 157 1.0 6.0 0.00 0.00 0.00 84 1009.6
20260506025539 80 45 1.0 8.0 0.00 0.00 0.00 84 1009.5
20260506025039 80 176 2.0 9.0 0.00 0.00 0.00 84 1009.3
20260506024606 80 106 2.0 9.0 0.00 0.00 0.00 84 1009.3
20260506024040 80 34 3.0 11.0 0.00 0.00 0.00 83 1009.1
20260506023540 81 58 2.0 11.0 0.00 0.00 0.00 83 1009.0
20260506023107 81 181 2.0 7.0 0.00 0.00 0.00 82 1009.0
20260506022539 81 0 1.0 7.0 0.00 0.00 0.00 82 1009.0
20260506022041 82 136 1.0 6.0 0.00 0.00 0.00 81 1008.9
20260506021552 82 0 1.0 10.0 0.00 0.00 0.00 81 1008.9
20260506021038 82 176 1.0 10.0 0.00 0.00 0.00 80 1008.9
20260506020539 82 0 1.0 7.0 0.00 0.00 0.00 80 1008.8
20260506020056 82 40 1.0 7.0 0.00 0.00 0.00 79 1008.5
20260506015540 82 77 1.0 11.0 0.00 0.00 0.00 79 1008.5
20260506015040 83 0 2.0 12.0 0.00 0.00 0.00 78 1008.5
20260506014555 83 184 2.0 12.0 0.00 0.00 0.00 77 1008.3
20260506014041 83 50 3.0 8.0 0.00 0.00 0.00 77 1008.2
20260506013538 83 37 3.0 8.0 0.00 0.00 0.00 76 1008.2
20260506013054 84 32 2.0 8.0 0.00 0.00 0.00 75 1008.1
20260506012541 84 41 1.0 6.0 0.00 0.00 0.00 75 1008.0
20260506012041 84 62 1.0 6.0 0.00 0.00 0.00 75 1007.9
20260506011548 84 37 1.0 9.0 0.00 0.00 0.00 75 1007.9
20260506011039 84 42 3.0 9.0 0.00 0.00 0.00 75 1007.8
20260506010540 84 30 2.0 7.0 0.00 0.00 0.00 74 1007.7
20260506010048 84 0 2.0 7.0 0.00 0.00 0.00 74 1007.7
20260506005540 85 133 1.0 6.0 0.00 0.00 0.00 74 1007.7
20260506005039 85 73 2.0 6.0 0.00 0.00 0.00 73 1007.6
20260506004557 85 181 0.0 5.0 0.00 0.00 0.00 72 1007.4
20260506004039 85 0 1.0 6.0 0.00 0.00 0.00 72 1007.5
20260506003538 85 0 1.0 6.0 0.00 0.00 0.00 72 1007.5
20260506003050 85 42 2.0 6.0 0.00 0.00 0.00 71 1007.6
20260506002539 86 136 2.0 5.0 0.00 0.00 0.00 71 1007.6
20260506002037 86 61 1.0 5.0 0.00 0.00 0.00 70 1007.5
20260506001554 86 0 0.0 6.0 0.00 0.00 0.00 70 1007.5
20260506001038 87 0 0.0 6.0 0.00 0.00 0.00 69 1007.5
20260506000541 87 200 1.0 6.0 0.00 0.00 0.00 68 1007.5
20260506000057 87 62 2.0 6.0 0.00 0.00 0.00 69 1007.5
20260505235539 87 198 0.0 6.0 0.00 0.00 0.00 69 1007.5
20260505235040 87 0 2.0 6.0 0.00 0.00 0.00 68 1007.4
20260505234547 87 0 1.0 5.0 0.00 0.00 0.00 69 1007.4
20260505234039 87 124 0.0 4.0 0.00 0.00 0.00 68 1007.5
20260505233541 87 0 1.0 4.0 0.00 0.00 0.00 68 1007.4
20260505233054 87 198 0.0 3.0 0.00 0.00 0.00 68 1007.4
20260505232539 87 118 0.0 5.0 0.00 0.00 0.00 68 1007.3
20260505232039 87 213 0.0 5.0 0.00 0.00 0.00 68 1007.5
20260505231551 87 185 3.0 5.0 0.00 0.00 0.00 67 1007.4
20260505231037 88 0 1.0 3.0 0.00 0.00 0.00 67 1007.4
20260505230537 89 233 0.0 3.0 0.00 0.00 0.00 65 1007.4
20260505230112 89 252 0.0 6.0 0.00 0.00 0.00 66 1007.3
20260505225538 88 0 1.0 7.0 0.00 0.00 0.00 66 1007.4
20260505225039 88 174 2.0 7.0 0.00 0.00 0.00 66 1007.3
20260505224549 88 261 0.0 7.0 0.00 0.00 0.00 66 1007.3
20260505224039 88 203 2.0 7.0 0.00 0.00 0.00 67 1007.3
20260505223539 88 147 3.0 7.0 0.00 0.00 0.00 66 1007.5
20260505223051 87 0 2.0 6.0 0.00 0.00 0.00 68 1007.3
20260505222540 87 181 1.0 7.0 0.00 0.00 0.00 67 1007.4
20260505222043 87 0 2.0 7.0 0.00 0.00 0.00 68 1007.5
20260505221555 87 191 2.0 7.0 0.00 0.00 0.00 67 1007.5
20260505221038 87 127 0.0 7.0 0.00 0.00 0.00 69 1007.6
20260505220539 86 167 3.0 7.0 0.00 0.00 0.00 68 1007.7
20260505220054 87 110 0.0 8.0 0.00 0.00 0.00 66 1007.8
20260505215539 87 52 2.0 8.0 0.00 0.00 0.00 67 1007.8
20260505215039 88 59 1.0 6.0 0.00 0.00 0.00 66 1007.8
20260505214545 89 0 1.0 8.0 0.00 0.00 0.00 64 1007.9
20260505214038 88 0 1.0 8.0 0.00 0.00 0.00 65 1007.8
20260505213539 88 253 3.0 8.0 0.00 0.00 0.00 65 1008.1
20260505213044 88 0 2.0 6.0 0.00 0.00 0.00 67 1008.1
20260505212540 88 91 1.0 6.0 0.00 0.00 0.00 66 1008.1
20260505212039 87 231 3.0 6.0 0.00 0.00 0.00 66 1008.2
20260505211559 87 233 2.0 6.0 0.00 0.00 0.00 66 1008.3
20260505211040 87 234 0.0 9.0 0.00 0.00 0.00 68 1008.2
20260505210538 87 238 0.0 9.0 0.00 0.00 0.00 67 1008.5
20260505210056 87 208 2.0 9.0 0.00 0.00 0.00 65 1008.5
20260505205540 88 218 1.0 7.0 0.00 0.00 0.00 66 1008.6
20260505205039 87 0 1.0 7.0 0.00 0.00 0.00 67 1008.4
20260505204549 87 212 1.0 7.0 0.00 0.00 0.00 67 1008.5
20260505204039 87 0 1.0 6.0 0.00 0.00 0.00 68 1008.7
20260505203539 86 0 0.0 5.0 0.00 0.00 0.00 68 1008.7
20260505203048 86 0 1.0 5.0 0.00 0.00 0.00 68 1009.0
20260505202537 87 193 1.0 5.0 0.00 0.00 0.00 69 1009.2